ROMMA est une association bénévole à but non lucratif. Votre soutien est indispensable : ADHERER à ROMMA ou FAIRE un DON

Granges-lès-Beaumont - (26, Drôme)

Drôme des Collines (155 m)   Longitude: 04°58'E   Latitude: 45°03'N Station partenaire n°123
 

Détail journalier du     <<     >>

Température Precipitation Humidité Pression Vent Dir Rafale Dir. rafale Ensol.
Heure (°C) (mm) (%) (hPa) (km/h) (km/h) (min)
01:00 2.90.496101205NNE0
02:00 3.409610123ENE13E0
03:00 3.709610121---8ENE0
04:00 3.609610122ENE11ENE0
05:00 3.2096101208NE0
06:00 1.90.29610122NO10ONO0
07:00 1.309610122N8N0
08:00 0.4096101200---0
09:00 0.609610122N8O30
10:00 2.809710121NO8NO60
11:00 4.309110122OSO10OSO40
12:00 6.308010112O8OSO50
13:00 7.8070100900---60
14:00 7.8067100800---40
15:00 7.906710072---13S0
16:00 7.307410067SSO16S30
17:00 6.407610044S13S10
18:00 6.607410039SSO31SO0
19:00 6.3074100113SSO27SSO0
20:00 6.4074100014SSO29SO0
21:00 5.40.284100011SSO27S0
22:00 5.218999914SO31SO0
23:00 5.00.69199814SSO32S0
minuit 5.309199815SSO35S0

Graphique du 12-12-2019

 

Serveur OMMA